Starlink 4085

operational
NORAD ID: 53262 Int'l Des: 2022-086 Owner: SPXS Country: US Constellation: starlink
LEOCIRCULAR

Starlink 4085について

説明を読み込み中...

リアルタイム位置

3D地球を読み込み中...

次回通過

高度履歴

Altitude vs Time

uPlot chart will show altitude changes over time

軌道要素

1 53262U 22086W 25303.71347646 -.00001151 00000-0 -54220-4 0 9994
2 53262 53.2138 57.6039 0001264 89.9522 270.1615 15.08843566181446
Epoch: Oct 30, 2025 • Age: 9 hours

現在のステータス

高度 547.4 km
速度 7.59 km/s
衛星直下点 -24.91°S, 173.58°W
打ち上げ日 Jul 24, 2022
運用期間 3.2 years
タイプ internet

技術仕様

分類 Payload
質量 297.00 kg
乾燥質量 275.00 kg
総質量 297.00 kg
長さ 0.20 m
直径 2.80 m
スパン 9.00 m
形状 Box + pan
製造者 SPXS
バスタイプ Starlink
フェーズステータス In Orbit
所有者/国 SPXS/US

大規模コンステレーション

Loading constellations...